Time,TemperatureF,DewpointF,PressureIn,WindDirection,WindDirectionDegrees,WindSpeedMPH,WindSpeedGustMPH,Humidity,HourlyPrecipIn,Conditions,Clouds,dailyrainin,SoftwareType,DateUTC
2013-03-20 00:00:00,56.1,42.4,29.98,NW,320,6.8,13.1,60,0.00, ,,-99.99,VWS V12.07,2013-03-20 04:00:00,
2013-03-20 00:01:00,56.5,43.0,29.98,NW,319,7.8,13.1,60,0.00, ,,-99.99,VWS V12.07,2013-03-20 04:01:00,
2013-03-20 00:03:00,56.1,42.2,29.98,NW,325,10.0,13.1,60,0.00, ,,-99.99,VWS V12.07,2013-03-20 04:03:00,
2013-03-20 00:08:00,56.1,42.1,29.98,NW,323,10.3,13.1,59,0.00, ,,-99.99,VWS V12.07,2013-03-20 04:08:00,
2013-03-20 00:13:00,55.7,40.8,29.98,NNW,337,8.6,13.1,57,0.00, ,,-99.99,VWS V12.07,2013-03-20 04:13:00,
2013-03-20 00:18:00,55.9,39.9,29.98,NW,320,11.1,12.8,55,0.00, ,,-99.99,VWS V12.07,2013-03-20 04:18:00,
2013-03-20 00:23:00,56.1,40.0,29.98,NNW,332,8.8,13.5,55,0.00, ,,-99.99,VWS V12.07,2013-03-20 04:23:00,
2013-03-20 00:28:00,55.7,39.6,29.98,NW,320,7.1,13.5,55,0.00, ,,-99.99,VWS V12.07,2013-03-20 04:28:00,
2013-03-20 00:33:00,55.4,39.8,29.98,NW,323,9.1,13.5,56,0.00, ,,-99.99,VWS V12.07,2013-03-20 04:33:00,
2013-03-20 00:38:00,55.4,40.8,29.98,NW,319,10.1,11.2,58,0.00, ,,-99.99,VWS V12.07,2013-03-20 04:38:00,
2013-03-20 00:43:00,55.7,40.4,29.98,NNW,333,11.4,12.7,56,0.00, ,,-99.99,VWS V12.07,2013-03-20 04:43:00,
2013-03-20 00:48:00,56.0,40.0,29.98,NNW,337,11.0,12.7,55,0.00, ,,-99.99,VWS V12.07,2013-03-20 04:48:00,
2013-03-20 00:53:00,55.8,38.9,29.98,NNW,329,11.4,14.3,53,0.00, ,,-99.99,VWS V12.07,2013-03-20 04:53:00,
2013-03-20 00:58:00,56.4,38.8,29.98,NNW,339,10.5,13.7,52,0.00, ,,-99.99,VWS V12.07,2013-03-20 04:58:00,
2013-03-20 01:03:00,56.5,39.9,29.98,NNW,336,10.8,13.7,54,0.00, ,,-99.99,VWS V12.07,2013-03-20 05:03:00,
2013-03-20 01:08:00,56.4,37.7,29.98,NNW,343,11.9,16.0,49,0.00, ,,-99.99,VWS V12.07,2013-03-20 05:08:00,
2013-03-20 01:13:00,56.1,39.1,29.98,NW,325,15.7,18.1,53,0.00, ,,-99.99,VWS V12.07,2013-03-20 05:13:00,
2013-03-20 01:18:00,56.1,36.6,29.99,North,353,12.9,16.5,48,0.00, ,,-99.99,VWS V12.07,2013-03-20 05:18:00,
2013-03-20 01:23:00,56.4,38.1,29.99,NNW,337,14.1,21.2,50,0.00, ,,-99.99,VWS V12.07,2013-03-20 05:23:00,
2013-03-20 01:29:00,56.1,36.4,29.99,NW,322,16.9,21.2,47,0.00, ,,-99.99,VWS V12.07,2013-03-20 05:29:00,
2013-03-20 01:34:00,56.0,36.8,29.99,NNW,336,13.9,21.2,48,0.00, ,,-99.99,VWS V12.07,2013-03-20 05:34:00,
2013-03-20 01:39:00,55.7,35.7,29.99,NW,325,15.9,18.4,47,0.00, ,,-99.99,VWS V12.07,2013-03-20 05:39:00,
2013-03-20 01:44:00,55.0,35.2,29.99,NW,319,14.0,19.6,47,0.00, ,,-99.99,VWS V12.07,2013-03-20 05:44:00,
2013-03-20 01:49:00,55.0,35.6,29.99,NNW,332,14.6,19.6,48,0.00, ,,-99.99,VWS V12.07,2013-03-20 05:49:00,
2013-03-20 01:54:00,55.1,35.8,29.99,NNW,343,16.7,19.6,48,0.00, ,,-99.99,VWS V12.07,2013-03-20 05:54:00,
2013-03-20 01:59:00,54.7,35.7,29.99,NNW,333,13.7,16.5,48,0.00, ,,-99.99,VWS V12.07,2013-03-20 05:59:00,
2013-03-20 02:04:00,54.6,34.4,29.99,NNW,339,15.3,20.4,46,0.00, ,,-99.99,VWS V12.07,2013-03-20 06:04:00,
2013-03-20 02:10:00,54.5,34.3,29.99,NNW,333,16.5,20.4,46,0.00, ,,-99.99,VWS V12.07,2013-03-20 06:10:00,
2013-03-20 02:15:00,54.5,35.2,29.99,NNW,339,14.7,20.4,48,0.00, ,,-99.99,VWS V12.07,2013-03-20 06:15:00,
2013-03-20 02:20:00,54.8,35.0,29.99,North,353,13.1,20.1,47,0.00, ,,-99.99,VWS V12.07,2013-03-20 06:20:00,
2013-03-20 02:25:00,54.6,31.9,29.99,NNW,337,16.1,24.4,42,0.00, ,,-99.99,VWS V12.07,2013-03-20 06:25:00,
2013-03-20 02:30:00,54.6,32.9,29.99,NNW,330,19.6,26.8,44,0.00, ,,-99.99,VWS V12.07,2013-03-20 06:30:00,
2013-03-20 02:35:00,54.5,31.0,29.99,NNW,336,21.0,26.8,40,0.00, ,,-99.99,VWS V12.07,2013-03-20 06:35:00,
2013-03-20 02:40:00,54.4,31.6,29.99,NNW,332,13.0,25.1,42,0.00, ,,-99.99,VWS V12.07,2013-03-20 06:40:00,
2013-03-20 02:45:00,54.0,29.9,29.99,NNW,336,20.7,26.5,39,0.00, ,,-99.99,VWS V12.07,2013-03-20 06:45:00,
2013-03-20 02:50:00,54.3,30.5,29.99,NNW,334,17.6,26.5,40,0.00, ,,-99.99,VWS V12.07,2013-03-20 06:50:00,
2013-03-20 02:55:00,54.2,28.5,29.99,NNW,337,20.5,26.5,37,0.00, ,,-99.99,VWS V12.07,2013-03-20 06:55:00,
2013-03-20 03:00:00,54.2,29.1,29.99,NNW,337,21.4,24.7,38,0.00, ,,-99.99,VWS V12.07,2013-03-20 07:00:00,
2013-03-20 03:05:00,53.9,27.0,29.99,NNW,327,13.9,24.7,35,0.00, ,,-99.99,VWS V12.07,2013-03-20 07:05:00,
2013-03-20 03:10:00,54.0,27.7,29.98,NNW,337,18.7,24.7,36,0.00, ,,-99.99,VWS V12.07,2013-03-20 07:10:00,
2013-03-20 03:15:00,53.7,27.9,29.99,NNW,339,16.5,24.7,37,0.00, ,,-99.99,VWS V12.07,2013-03-20 07:15:00,
2013-03-20 03:20:00,53.5,28.4,29.98,NNW,337,23.4,24.8,38,0.00, ,,-99.99,VWS V12.07,2013-03-20 07:20:00,
2013-03-20 03:25:00,54.0,28.2,29.99,NNW,334,16.7,26.1,37,0.00, ,,-99.99,VWS V12.07,2013-03-20 07:25:00,
2013-03-20 03:30:00,53.7,28.7,29.99,NNW,336,18.8,26.1,38,0.00, ,,-99.99,VWS V12.07,2013-03-20 07:30:00,
2013-03-20 03:35:00,53.5,28.5,29.98,NNW,337,19.7,26.1,38,0.00, ,,-99.99,VWS V12.07,2013-03-20 07:35:00,
2013-03-20 03:40:00,53.4,26.7,29.98,NNW,329,14.8,25.2,35,0.00, ,,-99.99,VWS V12.07,2013-03-20 07:40:00,
2013-03-20 03:45:00,53.4,28.6,29.98,NNW,341,14.5,25.2,38,0.00, ,,-99.99,VWS V12.07,2013-03-20 07:45:00,
2013-03-20 03:50:00,53.3,26.3,29.98,NNW,337,10.9,25.5,35,0.00, ,,-99.99,VWS V12.07,2013-03-20 07:50:00,
2013-03-20 03:55:00,53.0,28.7,29.98,NNW,330,19.9,25.5,39,0.00, ,,-99.99,VWS V12.07,2013-03-20 07:55:00,
2013-03-20 04:00:00,53.2,29.3,29.98,NW,326,12.1,21.3,40,0.00, ,,-99.99,VWS V12.07,2013-03-20 08:00:00,
2013-03-20 04:05:00,52.9,29.1,29.98,NNW,344,16.3,26.3,40,0.00, ,,-99.99,VWS V12.07,2013-03-20 08:05:00,
2013-03-20 04:11:00,52.9,27.2,29.98,NNW,329,18.1,26.3,37,0.00, ,,-99.99,VWS V12.07,2013-03-20 08:11:00,
2013-03-20 04:16:00,52.8,27.0,29.98,NNW,344,23.5,29.1,37,0.00, ,,-99.99,VWS V12.07,2013-03-20 08:16:00,
2013-03-20 04:21:00,52.3,29.3,29.98,North,11,14.5,23.9,41,0.00, ,,-99.99,VWS V12.07,2013-03-20 08:21:00,
2013-03-20 04:26:00,52.2,28.6,29.98,North,5,19.0,24.5,40,0.00, ,,-99.99,VWS V12.07,2013-03-20 08:26:00,
2013-03-20 04:31:00,52.3,28.6,29.98,NNW,347,18.0,27.7,40,0.00, ,,-99.99,VWS V12.07,2013-03-20 08:31:00,
2013-03-20 04:36:00,52.2,28.4,29.98,NNW,333,15.4,27.7,40,0.00, ,,-99.99,VWS V12.07,2013-03-20 08:36:00,
2013-03-20 04:41:00,52.1,27.8,29.99,North,5,15.3,24.4,39,0.00, ,,-99.99,VWS V12.07,2013-03-20 08:41:00,
2013-03-20 04:46:00,51.9,28.2,29.99,NNW,343,16.5,24.4,40,0.00, ,,-99.99,VWS V12.07,2013-03-20 08:46:00,
2013-03-20 04:51:00,51.8,29.3,30.00,NW,323,15.6,24.4,42,0.00, ,,-99.99,VWS V12.07,2013-03-20 08:51:00,
2013-03-20 04:56:00,51.7,29.7,30.00,NNW,341,13.4,24.4,43,0.00, ,,-99.99,VWS V12.07,2013-03-20 08:56:00,
2013-03-20 05:01:00,51.9,29.2,30.00,North,4,11.4,21.6,41,0.00, ,,-99.99,VWS V12.07,2013-03-20 09:01:00,
2013-03-20 05:06:00,51.6,28.1,30.00,North,353,12.2,23.4,40,0.00, ,,-99.99,VWS V12.07,2013-03-20 09:06:00,
2013-03-20 05:11:00,51.6,31.0,30.00,North,350,11.4,23.4,45,0.00, ,,-99.99,VWS V12.07,2013-03-20 09:11:00,
2013-03-20 05:17:00,51.1,29.5,30.01,NW,309,9.6,10.1,43,0.00, ,,-99.99,VWS V12.07,2013-03-20 09:17:00,
2013-03-20 05:22:00,50.9,30.5,30.01,North,5,8.9,18.5,45,0.00, ,,-99.99,VWS V12.07,2013-03-20 09:22:00,
2013-03-20 05:27:00,50.9,29.8,30.01,North,354,11.9,18.5,44,0.00, ,,-99.99,VWS V12.07,2013-03-20 09:27:00,
2013-03-20 05:32:00,50.9,29.0,30.01,NNW,336,11.6,18.8,43,0.00, ,,-99.99,VWS V12.07,2013-03-20 09:32:00,
2013-03-20 05:37:00,50.9,29.0,30.01,North,4,10.4,10.9,43,0.00, ,,-99.99,VWS V12.07,2013-03-20 09:37:00,
2013-03-20 05:42:00,50.4,29.0,30.01,North,355,12.2,18.0,43,0.00, ,,-99.99,VWS V12.07,2013-03-20 09:42:00,
2013-03-20 05:47:00,50.8,29.1,30.02,NNE,14,9.4,18.0,43,0.00, ,,-99.99,VWS V12.07,2013-03-20 09:47:00,
2013-03-20 05:53:00,50.6,28.1,30.02,North,1,14.6,18.0,42,0.00, ,,-99.99,VWS V12.07,2013-03-20 09:53:00,
2013-03-20 05:58:00,50.1,29.2,30.02,North,355,12.4,15.3,44,0.00, ,,-99.99,VWS V12.07,2013-03-20 09:58:00,
2013-03-20 06:03:00,50.1,29.2,30.02,North,354,12.6,17.2,44,0.00, ,,-99.99,VWS V12.07,2013-03-20 10:03:00,
2013-03-20 06:08:00,49.6,27.6,30.03,North,358,11.1,17.5,42,0.00, ,,-99.99,VWS V12.07,2013-03-20 10:08:00,
2013-03-20 06:13:00,49.9,30.4,30.03,North,350,8.0,17.5,47,0.00, ,,-99.99,VWS V12.07,2013-03-20 10:13:00,
2013-03-20 06:18:00,49.6,29.1,30.03,NNW,344,8.3,12.9,45,0.00, ,,-99.99,VWS V12.07,2013-03-20 10:18:00,
2013-03-20 06:23:00,49.5,29.6,30.03,North,360,10.0,13.0,46,0.00, ,,-99.99,VWS V12.07,2013-03-20 10:23:00,
2013-03-20 06:28:00,49.2,30.5,30.04,North,353,10.6,13.0,48,0.00, ,,-99.99,VWS V12.07,2013-03-20 10:28:00,
2013-03-20 06:33:00,48.9,30.5,30.04,North,8,8.5,13.0,49,0.00, ,,-99.99,VWS V12.07,2013-03-20 10:33:00,
2013-03-20 06:38:00,48.4,30.2,30.04,North,4,7.3,10.1,49,0.00, ,,-99.99,VWS V12.07,2013-03-20 10:38:00,
2013-03-20 06:43:00,48.3,30.1,30.04,North,11,8.4,10.1,49,0.00, ,,-99.99,VWS V12.07,2013-03-20 10:43:00,
2013-03-20 06:48:00,48.7,30.7,30.05,North,351,6.8,11.2,50,0.00, ,,-99.99,VWS V12.07,2013-03-20 10:48:00,
2013-03-20 06:53:00,48.5,29.8,30.05,NNW,348,5.6,11.2,48,0.00, ,,-99.99,VWS V12.07,2013-03-20 10:53:00,
2013-03-20 06:58:00,48.5,30.0,30.05,NNW,347,7.3,8.9,48,0.00, ,,-99.99,VWS V12.07,2013-03-20 10:58:00,
2013-03-20 07:03:00,49.0,30.8,30.05,NNW,344,4.5,10.7,49,0.00, ,,-99.99,VWS V12.07,2013-03-20 11:03:00,
2013-03-20 07:08:00,48.3,30.3,30.05,NNW,346,8.4,11.1,50,0.00, ,,-99.99,VWS V12.07,2013-03-20 11:08:00,
2013-03-20 07:13:00,49.0,30.9,30.06,North,358,5.5,11.1,50,0.00, ,,-99.99,VWS V12.07,2013-03-20 11:13:00,
2013-03-20 07:18:00,48.8,31.2,30.06,NNW,333,7.0,7.8,50,0.00, ,,-99.99,VWS V12.07,2013-03-20 11:18:00,
2013-03-20 07:23:00,48.6,31.3,30.06,NNW,348,4.9,10.4,51,0.00, ,,-99.99,VWS V12.07,2013-03-20 11:23:00,
2013-03-20 07:28:00,48.7,30.7,30.06,NW,312,4.3,10.4,50,0.00, ,,-99.99,VWS V12.07,2013-03-20 11:28:00,
2013-03-20 07:33:00,48.6,29.4,30.06,North,353,9.1,10.4,47,0.00, ,,-99.99,VWS V12.07,2013-03-20 11:33:00,
2013-03-20 07:38:00,48.9,30.1,30.06,NNW,343,7.8,8.9,48,0.00, ,,-99.99,VWS V12.07,2013-03-20 11:38:00,
2013-03-20 07:43:00,48.7,29.1,30.07,NNW,346,7.3,10.7,46,0.00, ,,-99.99,VWS V12.07,2013-03-20 11:43:00,
2013-03-20 07:48:00,48.9,30.5,30.07,North,1,6.2,10.7,49,0.00, ,,-99.99,VWS V12.07,2013-03-20 11:48:00,
2013-03-20 07:53:00,48.4,30.4,30.07,NNE,26,6.3,10.7,50,0.00, ,,-99.99,VWS V12.07,2013-03-20 11:53:00,
2013-03-20 07:59:00,49.1,30.4,30.07,NNE,14,6.4,7.8,48,0.00, ,,-99.99,VWS V12.07,2013-03-20 11:59:00,
2013-03-20 08:04:00,48.9,29.1,30.07,North,1,8.3,10.7,46,0.00, ,,-99.99,VWS V12.07,2013-03-20 12:04:00,
2013-03-20 08:09:00,48.5,29.1,30.08,North,4,8.1,10.7,47,0.00, ,,-99.99,VWS V12.07,2013-03-20 12:09:00,
2013-03-20 08:14:00,48.6,28.5,30.08,NNE,24,7.0,10.7,46,0.00, ,,-99.99,VWS V12.07,2013-03-20 12:14:00,
2013-03-20 08:19:00,48.7,30.0,30.08,North,355,5.8,9.4,48,0.00, ,,-99.99,VWS V12.07,2013-03-20 12:19:00,
2013-03-20 08:24:00,48.6,28.4,30.09,North,351,8.8,11.4,45,0.00, ,,-99.99,VWS V12.07,2013-03-20 12:24:00,
2013-03-20 08:29:00,48.6,29.0,30.09,North,353,5.6,11.4,46,0.00, ,,-99.99,VWS V12.07,2013-03-20 12:29:00,
2013-03-20 08:34:00,48.8,28.7,30.09,North,5,5.3,11.4,46,0.00, ,,-99.99,VWS V12.07,2013-03-20 12:34:00,
2013-03-20 08:39:00,49.5,30.1,30.10,NNW,329,8.5,11.2,47,0.00, ,,-99.99,VWS V12.07,2013-03-20 12:39:00,
2013-03-20 08:44:00,49.6,27.2,30.10,NNW,341,8.6,12.6,42,0.00, ,,-99.99,VWS V12.07,2013-03-20 12:44:00,
2013-03-20 08:49:00,49.2,27.3,30.09,North,360,8.7,12.6,42,0.00, ,,-99.99,VWS V12.07,2013-03-20 12:49:00,
2013-03-20 08:54:00,49.3,28.2,30.10,North,357,10.1,12.9,44,0.00, ,,-99.99,VWS V12.07,2013-03-20 12:54:00,
2013-03-20 08:59:00,49.0,27.1,30.10,NNW,340,11.6,13.8,42,0.00, ,,-99.99,VWS V12.07,2013-03-20 12:59:00,
2013-03-20 09:04:00,49.5,28.6,30.09,NNW,332,11.1,13.8,44,0.00, ,,-99.99,VWS V12.07,2013-03-20 13:04:00,
2013-03-20 09:09:00,49.6,27.3,30.10,NNW,344,10.6,16.0,42,0.00, ,,-99.99,VWS V12.07,2013-03-20 13:09:00,
2013-03-20 09:14:00,49.3,28.6,30.10,North,5,9.9,16.0,44,0.00, ,,-99.99,VWS V12.07,2013-03-20 13:14:00,
2013-03-20 09:19:00,49.6,26.2,30.10,North,10,12.1,15.2,40,0.00, ,,-99.99,VWS V12.07,2013-03-20 13:19:00,
2013-03-20 09:24:00,49.7,27.9,30.10,NW,322,8.0,15.2,43,0.00, ,,-99.99,VWS V12.07,2013-03-20 13:24:00,
2013-03-20 09:29:00,49.7,26.2,30.10,North,8,10.6,15.8,40,0.00, ,,-99.99,VWS V12.07,2013-03-20 13:29:00,
2013-03-20 09:34:00,49.9,25.8,30.10,North,350,11.5,15.8,39,0.00, ,,-99.99,VWS V12.07,2013-03-20 13:34:00,
2013-03-20 09:40:00,50.0,27.2,30.10,North,353,9.1,14.5,41,0.00, ,,-99.99,VWS V12.07,2013-03-20 13:40:00,
2013-03-20 09:46:00,50.0,25.3,30.10,North,8,13.9,19.2,38,0.00, ,,-99.99,VWS V12.07,2013-03-20 13:46:00,
2013-03-20 09:52:00,50.8,27.0,30.10,NNE,15,7.1,19.2,39,0.00, ,,-99.99,VWS V12.07,2013-03-20 13:52:00,
2013-03-20 09:58:00,51.2,24.3,30.10,North,357,16.0,17.3,35,0.00, ,,-99.99,VWS V12.07,2013-03-20 13:58:00,
2013-03-20 10:03:00,50.6,24.0,30.11,North,354,13.7,20.3,35,0.00, ,,-99.99,VWS V12.07,2013-03-20 14:03:00,
2013-03-20 10:08:00,49.9,22.3,30.11,North,353,12.7,20.3,34,0.00, ,,-99.99,VWS V12.07,2013-03-20 14:08:00,
2013-03-20 10:13:00,49.7,21.7,30.11,NNW,344,15.2,20.3,33,0.00, ,,-99.99,VWS V12.07,2013-03-20 14:13:00,
2013-03-20 10:18:00,49.8,22.4,30.11,NNW,347,13.1,15.9,34,0.00, ,,-99.99,VWS V12.07,2013-03-20 14:18:00,
2013-03-20 10:23:00,50.5,24.2,30.11,North,7,10.7,17.0,36,0.00, ,,-99.99,VWS V12.07,2013-03-20 14:23:00,
2013-03-20 10:29:00,51.1,26.2,30.11,NNW,348,8.9,17.0,38,0.00, ,,-99.99,VWS V12.07,2013-03-20 14:29:00,
2013-03-20 10:35:00,50.5,23.8,30.11,North,4,10.8,17.0,35,0.00, ,,-99.99,VWS V12.07,2013-03-20 14:35:00,
2013-03-20 10:40:00,51.0,25.3,30.11,North,357,10.9,13.0,36,0.00, ,,-99.99,VWS V12.07,2013-03-20 14:40:00,
2013-03-20 10:45:00,51.2,27.3,30.11,NNW,348,10.5,16.0,39,0.00, ,,-99.99,VWS V12.07,2013-03-20 14:45:00,
2013-03-20 10:50:00,50.9,25.0,30.12,North,7,7.5,16.0,36,0.00, ,,-99.99,VWS V12.07,2013-03-20 14:50:00,
2013-03-20 10:55:00,51.2,22.7,30.11,North,360,10.9,16.0,32,0.00, ,,-99.99,VWS V12.07,2013-03-20 14:55:00,
2013-03-20 11:00:00,50.9,24.3,30.11,North,11,13.4,16.5,35,0.00, ,,-99.99,VWS V12.07,2013-03-20 15:00:00,
2013-03-20 11:05:00,51.1,23.4,30.11,NNW,344,12.2,16.5,34,0.00, ,,-99.99,VWS V12.07,2013-03-20 15:05:00,
2013-03-20 11:10:00,51.4,23.8,30.11,North,8,13.2,16.5,34,0.00, ,,-99.99,VWS V12.07,2013-03-20 15:10:00,
2013-03-20 11:15:00,51.3,22.5,30.11,North,7,13.9,18.0,32,0.00, ,,-99.99,VWS V12.07,2013-03-20 15:15:00,
2013-03-20 11:20:00,51.8,25.2,30.10,North,7,11.7,16.0,35,0.00, ,,-99.99,VWS V12.07,2013-03-20 15:20:00,
2013-03-20 11:25:00,51.4,20.7,30.10,North,358,12.3,17.6,30,0.00, ,,-99.99,VWS V12.07,2013-03-20 15:25:00,
2013-03-20 11:30:00,51.3,23.7,30.10,North,353,12.3,17.6,34,0.00, ,,-99.99,VWS V12.07,2013-03-20 15:30:00,
2013-03-20 11:35:00,51.1,21.7,30.10,NNE,12,9.6,17.6,31,0.00, ,,-99.99,VWS V12.07,2013-03-20 15:35:00,
2013-03-20 11:40:00,51.3,22.7,30.10,North,4,5.1,12.8,32,0.00, ,,-99.99,VWS V12.07,2013-03-20 15:40:00,
2013-03-20 11:45:00,52.6,24.3,30.10,North,360,8.4,12.8,33,0.00, ,,-99.99,VWS V12.07,2013-03-20 15:45:00,
2013-03-20 11:50:00,52.0,22.9,30.10,North,360,10.1,13.7,32,0.00, ,,-99.99,VWS V12.07,2013-03-20 15:50:00,
2013-03-20 11:55:00,51.8,23.7,30.10,North,351,10.4,13.7,33,0.00, ,,-99.99,VWS V12.07,2013-03-20 15:55:00,
2013-03-20 12:00:00,52.0,23.5,30.10,NNE,31,9.9,11.9,33,0.00, ,,-99.99,VWS V12.07,2013-03-20 16:00:00,
2013-03-20 12:05:00,51.7,22.4,30.09,North,10,6.9,12.4,32,0.00, ,,-99.99,VWS V12.07,2013-03-20 16:05:00,
2013-03-20 12:10:00,52.8,24.7,30.09,NNE,17,9.3,12.4,33,0.00, ,,-99.99,VWS V12.07,2013-03-20 16:10:00,
2013-03-20 12:15:00,53.2,23.1,30.09,NNW,341,8.6,12.4,31,0.00, ,,-99.99,VWS V12.07,2013-03-20 16:15:00,
2013-03-20 12:20:00,53.0,21.8,30.09,North,353,5.0,9.9,29,0.00, ,,-99.99,VWS V12.07,2013-03-20 16:20:00,
2013-03-20 12:25:00,53.5,22.9,30.08,NE,35,0.0,9.9,30,0.00, ,,-99.99,VWS V12.07,2013-03-20 16:25:00,
2013-03-20 12:30:00,53.3,24.5,30.08,North,5,8.0,11.1,32,0.00, ,,-99.99,VWS V12.07,2013-03-20 16:30:00,
2013-03-20 12:35:00,53.2,23.7,30.08,NNE,21,9.1,11.1,31,0.00, ,,-99.99,VWS V12.07,2013-03-20 16:35:00,
2013-03-20 12:40:00,53.3,25.2,30.07,North,11,5.2,9.1,33,0.00, ,,-99.99,VWS V12.07,2013-03-20 16:40:00,
2013-03-20 12:45:00,52.9,22.9,30.07,North,2,13.5,14.7,31,0.00, ,,-99.99,VWS V12.07,2013-03-20 16:45:00,
2013-03-20 12:50:00,53.5,23.7,30.06,NNE,17,5.2,14.9,31,0.00, ,,-99.99,VWS V12.07,2013-03-20 16:50:00,
2013-03-20 12:55:00,53.4,22.8,30.07,NNE,19,7.1,14.9,30,0.00, ,,-99.99,VWS V12.07,2013-03-20 16:55:00,
2013-03-20 13:00:00,54.0,23.8,30.07,NNE,18,5.5,9.1,31,0.00, ,,-99.99,VWS V12.07,2013-03-20 17:00:00,
2013-03-20 13:05:00,54.0,23.4,30.06,North,360,4.5,12.4,30,0.00, ,,-99.99,VWS V12.07,2013-03-20 17:05:00,
2013-03-20 13:10:00,53.7,22.1,30.06,NNE,14,9.0,12.4,29,0.00, ,,-99.99,VWS V12.07,2013-03-20 17:10:00,
2013-03-20 13:15:00,54.2,23.9,30.06,North,350,6.4,12.4,30,0.00, ,,-99.99,VWS V12.07,2013-03-20 17:15:00,
2013-03-20 13:20:00,54.9,23.1,30.06,NNE,12,10.7,11.1,29,0.00, ,,-99.99,VWS V12.07,2013-03-20 17:20:00,
2013-03-20 13:25:00,54.7,21.5,30.05,NE,42,4.3,11.1,27,0.00, ,,-99.99,VWS V12.07,2013-03-20 17:25:00,
2013-03-20 13:30:00,55.2,23.8,30.05,North,360,8.0,11.1,29,0.00, ,,-99.99,VWS V12.07,2013-03-20 17:30:00,
2013-03-20 13:35:00,54.7,22.5,30.05,NE,39,9.0,11.1,28,0.00, ,,-99.99,VWS V12.07,2013-03-20 17:35:00,
2013-03-20 13:40:00,54.3,22.7,30.05,NNE,26,8.4,15.2,29,0.00, ,,-99.99,VWS V12.07,2013-03-20 17:40:00,
2013-03-20 13:45:00,54.1,21.9,30.05,NNE,24,9.8,16.1,28,0.00, ,,-99.99,VWS V12.07,2013-03-20 17:45:00,
2013-03-20 13:50:00,54.1,21.2,30.04,NNE,19,5.0,16.1,27,0.00, ,,-99.99,VWS V12.07,2013-03-20 17:50:00,
2013-03-20 13:55:00,54.0,21.4,30.04,NNE,26,8.4,16.1,28,0.00, ,,-99.99,VWS V12.07,2013-03-20 17:55:00,
2013-03-20 14:00:00,54.7,23.6,30.04,NNE,24,8.0,10.6,30,0.00, ,,-99.99,VWS V12.07,2013-03-20 18:00:00,
2013-03-20 14:05:00,54.7,22.2,30.04,ENE,78,7.9,13.5,28,0.00, ,,-99.99,VWS V12.07,2013-03-20 18:05:00,
2013-03-20 14:10:00,55.5,22.6,30.03,NE,40,4.3,13.5,28,0.00, ,,-99.99,VWS V12.07,2013-03-20 18:10:00,
2013-03-20 14:15:00,54.9,20.5,30.03,NE,53,4.8,13.5,26,0.00, ,,-99.99,VWS V12.07,2013-03-20 18:15:00,
2013-03-20 14:21:00,56.0,23.6,30.02,North,5,8.5,9.6,28,0.00, ,,-99.99,VWS V12.07,2013-03-20 18:21:00,
2013-03-20 14:27:00,56.1,22.5,30.02,North,5,0.0,10.7,27,0.00, ,,-99.99,VWS V12.07,2013-03-20 18:27:00,
2013-03-20 14:32:00,55.5,22.3,30.01,NNE,28,0.0,10.9,27,0.00, ,,-99.99,VWS V12.07,2013-03-20 18:32:00,
2013-03-20 14:37:00,54.7,22.4,30.01,ESE,118,7.4,7.4,28,0.00, ,,-99.99,VWS V12.07,2013-03-20 18:37:00,
2013-03-20 14:43:00,54.0,20.1,30.01,ENE,73,8.6,10.6,26,0.00, ,,-99.99,VWS V12.07,2013-03-20 18:43:00,
2013-03-20 14:48:00,54.5,22.0,30.01,ENE,70,7.6,10.6,28,0.00, ,,-99.99,VWS V12.07,2013-03-20 18:48:00,
2013-03-20 14:53:00,54.5,22.4,30.00,NNE,29,0.0,10.6,28,0.00, ,,-99.99,VWS V12.07,2013-03-20 18:53:00,
2013-03-20 14:58:00,55.6,22.1,30.00,NE,52,0.0,0.0,27,0.00, ,,-99.99,VWS V12.07,2013-03-20 18:58:00,
2013-03-20 15:03:00,55.1,22.2,30.00,NE,42,5.4,7.8,28,0.00, ,,-99.99,VWS V12.07,2013-03-20 19:03:00,
2013-03-20 15:08:00,55.1,22.1,30.00,NNE,22,3.4,7.8,27,0.00, ,,-99.99,VWS V12.07,2013-03-20 19:08:00,
2013-03-20 15:13:00,56.0,23.3,30.00,ENE,69,5.8,7.8,28,0.00, ,,-99.99,VWS V12.07,2013-03-20 19:13:00,
2013-03-20 15:19:00,55.1,21.9,29.99,ENE,71,0.0,5.3,27,0.00, ,,-99.99,VWS V12.07,2013-03-20 19:19:00,
2013-03-20 15:24:00,55.3,22.8,29.99,North,351,0.0,5.8,28,0.00, ,,-99.99,VWS V12.07,2013-03-20 19:24:00,
2013-03-20 15:29:00,55.2,21.7,29.99,North,351,0.0,5.8,27,0.00, ,,-99.99,VWS V12.07,2013-03-20 19:29:00,
2013-03-20 15:34:00,55.0,30.4,29.98,SE,143,10.4,11.6,39,0.00, ,,-99.99,VWS V12.07,2013-03-20 19:34:00,
2013-03-20 15:39:00,54.0,31.7,29.98,SE,126,13.3,13.7,42,0.00, ,,-99.99,VWS V12.07,2013-03-20 19:39:00,
2013-03-20 15:44:00,53.1,31.5,29.97,SE,126,13.5,17.0,44,0.00, ,,-99.99,VWS V12.07,2013-03-20 19:44:00,
2013-03-20 15:50:00,53.1,32.2,29.97,SE,140,10.7,17.0,45,0.00, ,,-99.99,VWS V12.07,2013-03-20 19:50:00,
2013-03-20 15:55:00,52.7,33.3,29.96,SE,146,12.6,17.0,48,0.00, ,,-99.99,VWS V12.07,2013-03-20 19:55:00,
2013-03-20 16:00:00,52.5,33.8,29.96,SSE,163,12.6,14.4,49,0.00, ,,-99.99,VWS V12.07,2013-03-20 20:00:00,
2013-03-20 16:05:00,52.4,33.6,29.96,SSE,160,12.9,16.0,48,0.00, ,,-99.99,VWS V12.07,2013-03-20 20:05:00,
2013-03-20 16:10:00,52.3,33.1,29.96,SSE,152,10.9,17.6,48,0.00, ,,-99.99,VWS V12.07,2013-03-20 20:10:00,
2013-03-20 16:15:00,51.9,34.0,29.95,SE,138,12.6,17.6,50,0.00, ,,-99.99,VWS V12.07,2013-03-20 20:15:00,
2013-03-20 16:20:00,52.1,33.2,29.95,SE,132,10.5,14.7,48,0.00, ,,-99.99,VWS V12.07,2013-03-20 20:20:00,
2013-03-20 16:25:00,52.4,32.6,29.94,SSE,160,8.4,14.7,47,0.00, ,,-99.99,VWS V12.07,2013-03-20 20:25:00,
2013-03-20 16:30:00,52.0,31.1,29.94,SE,129,12.9,16.3,44,0.00, ,,-99.99,VWS V12.07,2013-03-20 20:30:00,
2013-03-20 16:35:00,52.1,32.6,29.94,SSE,147,12.9,16.5,47,0.00, ,,-99.99,VWS V12.07,2013-03-20 20:35:00,
2013-03-20 16:40:00,52.1,31.5,29.94,SSE,154,12.4,13.9,45,0.00, ,,-99.99,VWS V12.07,2013-03-20 20:40:00,
2013-03-20 16:45:00,52.0,32.2,29.93,ESE,122,10.6,15.3,47,0.00, ,,-99.99,VWS V12.07,2013-03-20 20:45:00,
2013-03-20 16:50:00,52.3,31.2,29.93,SE,142,11.8,15.3,44,0.00, ,,-99.99,VWS V12.07,2013-03-20 20:50:00,
2013-03-20 16:55:00,52.3,30.5,29.93,ESE,123,10.9,15.3,43,0.00, ,,-99.99,VWS V12.07,2013-03-20 20:55:00,
2013-03-20 17:00:00,51.9,31.8,29.93,SSE,154,9.3,14.2,46,0.00, ,,-99.99,VWS V12.07,2013-03-20 21:00:00,
2013-03-20 17:05:00,51.6,30.4,29.92,SE,142,14.3,15.1,44,0.00, ,,-99.99,VWS V12.07,2013-03-20 21:05:00,
2013-03-20 17:10:00,52.1,30.7,29.92,SE,139,8.6,16.4,44,0.00, ,,-99.99,VWS V12.07,2013-03-20 21:10:00,
2013-03-20 17:15:00,51.9,31.8,29.93,SSE,161,12.2,16.5,46,0.00, ,,-99.99,VWS V12.07,2013-03-20 21:15:00,
2013-03-20 17:20:00,51.8,32.0,29.93,SE,138,14.2,15.9,46,0.00, ,,-99.99,VWS V12.07,2013-03-20 21:20:00,
2013-03-20 17:25:00,51.7,30.3,29.92,SE,135,11.0,15.9,44,0.00, ,,-99.99,VWS V12.07,2013-03-20 21:25:00,
2013-03-20 17:30:00,51.9,31.4,29.92,ESE,114,13.4,15.9,45,0.00, ,,-99.99,VWS V12.07,2013-03-20 21:30:00,
2013-03-20 17:35:00,51.9,30.7,29.92,SE,138,10.7,15.9,44,0.00, ,,-99.99,VWS V12.07,2013-03-20 21:35:00,
2013-03-20 17:40:00,51.7,30.7,29.92,SE,138,10.9,13.5,44,0.00, ,,-99.99,VWS V12.07,2013-03-20 21:40:00,
2013-03-20 17:45:00,51.8,31.4,29.91,ESE,118,9.1,13.9,45,0.00, ,,-99.99,VWS V12.07,2013-03-20 21:45:00,
2013-03-20 17:50:00,51.8,30.5,29.91,SE,129,9.4,13.9,44,0.00, ,,-99.99,VWS V12.07,2013-03-20 21:50:00,
2013-03-20 17:55:00,51.9,31.7,29.91,ESE,109,11.4,13.9,46,0.00, ,,-99.99,VWS V12.07,2013-03-20 21:55:00,
2013-03-20 18:00:00,52.1,32.0,29.91,SE,146,9.6,11.6,46,0.00, ,,-99.99,VWS V12.07,2013-03-20 22:00:00,
2013-03-20 18:05:00,52.2,31.2,29.91,SE,136,10.3,12.1,44,0.00, ,,-99.99,VWS V12.07,2013-03-20 22:05:00,
2013-03-20 18:10:00,51.7,30.8,29.91,ESE,121,9.1,13.0,44,0.00, ,,-99.99,VWS V12.07,2013-03-20 22:10:00,
2013-03-20 18:15:00,52.2,30.8,29.91,SSE,156,8.8,13.0,44,0.00, ,,-99.99,VWS V12.07,2013-03-20 22:15:00,
2013-03-20 18:20:00,52.2,31.4,29.91,SSE,160,9.6,13.0,45,0.00, ,,-99.99,VWS V12.07,2013-03-20 22:20:00,
2013-03-20 18:25:00,52.3,31.9,29.91,SE,145,12.9,15.5,46,0.00, ,,-99.99,VWS V12.07,2013-03-20 22:25:00,
2013-03-20 18:30:00,52.1,31.0,29.92,SE,140,10.7,15.5,44,0.00, ,,-99.99,VWS V12.07,2013-03-20 22:30:00,
2013-03-20 18:35:00,52.0,29.5,29.92,SE,130,10.6,15.5,42,0.00, ,,-99.99,VWS V12.07,2013-03-20 22:35:00,
2013-03-20 18:40:00,52.2,29.8,29.92,SE,143,9.9,12.5,42,0.00, ,,-99.99,VWS V12.07,2013-03-20 22:40:00,
2013-03-20 18:45:00,52.4,30.4,29.92,SE,145,11.4,13.4,43,0.00, ,,-99.99,VWS V12.07,2013-03-20 22:45:00,
2013-03-20 18:50:00,52.4,31.3,29.92,SSE,154,11.1,13.4,44,0.00, ,,-99.99,VWS V12.07,2013-03-20 22:50:00,
2013-03-20 18:55:00,52.4,30.5,29.92,SE,139,10.9,13.4,43,0.00, ,,-99.99,VWS V12.07,2013-03-20 22:55:00,
2013-03-20 19:00:00,52.6,32.0,29.92,SSE,153,10.6,11.3,45,0.00, ,,-99.99,VWS V12.07,2013-03-20 23:00:00,
2013-03-20 19:05:00,52.5,32.1,29.91,ESE,115,7.0,11.3,46,0.00, ,,-99.99,VWS V12.07,2013-03-20 23:05:00,
2013-03-20 19:10:00,52.9,32.2,29.91,SE,132,6.3,11.3,45,0.00, ,,-99.99,VWS V12.07,2013-03-20 23:10:00,
2013-03-20 19:15:00,52.7,32.7,29.91,ESE,123,6.3,11.3,46,0.00, ,,-99.99,VWS V12.07,2013-03-20 23:15:00,
2013-03-20 19:20:00,52.5,33.1,29.91,SE,133,6.6,10.6,47,0.00, ,,-99.99,VWS V12.07,2013-03-20 23:20:00,
2013-03-20 19:25:00,53.1,34.1,29.91,ESE,115,6.2,10.6,48,0.00, ,,-99.99,VWS V12.07,2013-03-20 23:25:00,
2013-03-20 19:30:00,52.9,33.3,29.91,ESE,123,6.5,10.6,47,0.00, ,,-99.99,VWS V12.07,2013-03-20 23:30:00,
2013-03-20 19:35:00,52.7,32.7,29.91,ESE,122,8.3,11.4,46,0.00, ,,-99.99,VWS V12.07,2013-03-20 23:35:00,
2013-03-20 19:40:00,53.2,33.4,29.91,SE,125,7.2,10.1,47,0.00, ,,-99.99,VWS V12.07,2013-03-20 23:40:00,
2013-03-20 19:45:00,53.0,33.7,29.90,SE,140,5.6,10.1,48,0.00, ,,-99.99,VWS V12.07,2013-03-20 23:45:00,
2013-03-20 19:51:00,53.0,32.4,29.91,SE,143,6.6,10.1,45,0.00, ,,-99.99,VWS V12.07,2013-03-20 23:51:00,
2013-03-20 19:56:00,53.2,32.6,29.91,SE,143,7.0,10.1,45,0.00, ,,-99.99,VWS V12.07,2013-03-20 23:56:00,
2013-03-20 20:02:00,53.0,31.5,29.91,SSE,150,7.1,9.4,44,0.00, ,,-99.99,VWS V12.07,2013-03-21 00:02:00,
2013-03-20 20:07:00,53.3,32.3,29.90,SSE,149,6.7,9.4,45,0.00, ,,-99.99,VWS V12.07,2013-03-21 00:07:00,
2013-03-20 20:13:00,53.4,32.1,29.90,SE,145,7.6,9.4,44,0.00, ,,-99.99,VWS V12.07,2013-03-21 00:13:00,
2013-03-20 20:18:00,53.6,31.4,29.90,SE,139,6.1,6.8,42,0.00, ,,-99.99,VWS V12.07,2013-03-21 00:18:00,
2013-03-20 20:23:00,53.8,31.9,29.90,SE,129,4.4,8.1,43,0.00, ,,-99.99,VWS V12.07,2013-03-21 00:23:00,
2013-03-20 20:29:00,53.5,32.5,29.90,NE,43,0.0,8.1,45,0.00, ,,-99.99,VWS V12.07,2013-03-21 00:29:00,
2013-03-20 20:34:00,53.5,33.2,29.90,NNE,32,0.0,8.1,46,0.00, ,,-99.99,VWS V12.07,2013-03-21 00:34:00,
2013-03-20 20:39:00,53.1,33.5,29.90,NNE,32,0.0,0.0,47,0.00, ,,-99.99,VWS V12.07,2013-03-21 00:39:00,
2013-03-20 20:44:00,53.4,33.9,29.90,NNE,32,0.0,0.0,47,0.00, ,,-99.99,VWS V12.07,2013-03-21 00:44:00,
2013-03-20 20:50:00,53.4,34.4,29.89,NNE,32,0.0,0.0,48,0.00, ,,-99.99,VWS V12.07,2013-03-21 00:50:00,
2013-03-20 20:56:00,53.4,33.8,29.89,NNE,32,0.0,0.0,47,0.00, ,,-99.99,VWS V12.07,2013-03-21 00:56:00,
2013-03-20 21:01:00,53.5,34.3,29.89,NNE,32,0.0,0.0,48,0.00, ,,-99.99,VWS V12.07,2013-03-21 01:01:00,
2013-03-20 21:06:00,53.5,33.9,29.88,NNE,32,0.0,0.0,47,0.00, ,,-99.99,VWS V12.07,2013-03-21 01:06:00,
2013-03-20 21:11:00,53.5,34.7,29.88,NNE,32,0.0,0.0,49,0.00, ,,-99.99,VWS V12.07,2013-03-21 01:11:00,
2013-03-20 21:17:00,53.4,35.6,29.88,NNE,32,0.0,0.0,51,0.00, ,,-99.99,VWS V12.07,2013-03-21 01:17:00,
2013-03-20 21:22:00,53.1,37.0,29.88,NNE,32,0.0,0.0,54,0.00, ,,-99.99,VWS V12.07,2013-03-21 01:22:00,
2013-03-20 21:27:00,52.8,37.1,29.88,NE,39,4.6,6.5,55,0.00, ,,-99.99,VWS V12.07,2013-03-21 01:27:00,
2013-03-20 21:33:00,51.4,40.1,29.87,NNE,15,0.0,6.5,65,0.00, ,,-99.99,VWS V12.07,2013-03-21 01:33:00,
2013-03-20 21:38:00,50.5,40.0,29.87,NNE,15,0.0,0.0,67,0.00, ,,-99.99,VWS V12.07,2013-03-21 01:38:00,
2013-03-20 21:43:00,50.3,40.5,29.87,NNE,15,0.0,0.0,69,0.00, ,,-99.99,VWS V12.07,2013-03-21 01:43:00,
2013-03-20 21:48:00,50.3,40.8,29.87,North,355,3.4,4.3,70,0.00, ,,-99.99,VWS V12.07,2013-03-21 01:48:00,
2013-03-20 21:53:00,50.1,41.4,29.87,North,7,5.6,6.3,72,0.00, ,,-99.99,VWS V12.07,2013-03-21 01:53:00,
2013-03-20 21:58:00,50.3,41.9,29.87,North,11,0.0,0.0,73,0.00, ,,-99.99,VWS V12.07,2013-03-21 01:58:00,
2013-03-20 22:03:00,49.5,41.4,29.87,North,7,0.0,4.8,74,0.00, ,,-99.99,VWS V12.07,2013-03-21 02:03:00,
2013-03-20 22:08:00,50.0,42.0,29.87,North,7,0.0,4.8,74,0.00, ,,-99.99,VWS V12.07,2013-03-21 02:08:00,
2013-03-20 22:13:00,49.7,42.2,29.86,North,7,0.0,4.8,75,0.00, ,,-99.99,VWS V12.07,2013-03-21 02:13:00,
2013-03-20 22:18:00,49.0,41.3,29.86,North,7,0.0,0.0,75,0.00, ,,-99.99,VWS V12.07,2013-03-21 02:18:00,
2013-03-20 22:23:00,48.7,41.1,29.86,North,7,0.0,0.0,75,0.00, ,,-99.99,VWS V12.07,2013-03-21 02:23:00,
2013-03-20 22:28:00,49.0,41.0,29.86,North,7,0.0,0.0,74,0.00, ,,-99.99,VWS V12.07,2013-03-21 02:28:00,
2013-03-20 22:33:00,49.0,40.9,29.85,North,1,3.5,5.7,74,0.00, ,,-99.99,VWS V12.07,2013-03-21 02:33:00,
2013-03-20 22:38:00,48.8,41.1,29.86,North,2,5.8,6.6,75,0.00, ,,-99.99,VWS V12.07,2013-03-21 02:38:00,
2013-03-20 22:43:00,49.0,41.4,29.85,North,1,3.1,7.2,75,0.00, ,,-99.99,VWS V12.07,2013-03-21 02:43:00,
2013-03-20 22:48:00,48.7,40.8,29.85,North,2,0.0,7.2,74,0.00, ,,-99.99,VWS V12.07,2013-03-21 02:48:00,
2013-03-20 22:53:00,48.7,41.0,29.85,NNE,24,0.0,7.2,75,0.00, ,,-99.99,VWS V12.07,2013-03-21 02:53:00,
2013-03-20 22:58:00,48.6,41.2,29.85,NNE,24,0.0,0.0,75,0.00, ,,-99.99,VWS V12.07,2013-03-21 02:58:00,
2013-03-20 23:03:00,48.6,40.3,29.85,NNE,24,0.0,0.0,73,0.00, ,,-99.99,VWS V12.07,2013-03-21 03:03:00,
2013-03-20 23:08:00,48.4,40.4,29.84,NNE,24,0.0,0.0,74,0.00, ,,-99.99,VWS V12.07,2013-03-21 03:08:00,
2013-03-20 23:13:00,48.6,40.6,29.84,NNE,24,0.0,0.0,74,0.00, ,,-99.99,VWS V12.07,2013-03-21 03:13:00,
2013-03-20 23:18:00,48.6,40.2,29.84,NNE,24,0.0,0.0,72,0.00, ,,-99.99,VWS V12.07,2013-03-21 03:18:00,
2013-03-20 23:23:00,48.3,39.7,29.84,NNE,24,0.0,0.0,72,0.00, ,,-99.99,VWS V12.07,2013-03-21 03:23:00,
2013-03-20 23:28:00,48.3,39.4,29.84,NNE,24,0.0,0.0,71,0.00, ,,-99.99,VWS V12.07,2013-03-21 03:28:00,
2013-03-20 23:33:00,48.5,39.5,29.83,NNE,24,0.0,0.0,71,0.00, ,,-99.99,VWS V12.07,2013-03-21 03:33:00,
2013-03-20 23:38:00,48.6,39.3,29.83,NNE,24,0.0,0.0,70,0.00, ,,-99.99,VWS V12.07,2013-03-21 03:38:00,
2013-03-20 23:43:00,48.2,39.7,29.83,NNE,24,0.0,0.0,72,0.00, ,,-99.99,VWS V12.07,2013-03-21 03:43:00,
2013-03-20 23:48:00,48.1,39.2,29.82,NNE,24,0.0,0.0,71,0.00, ,,-99.99,VWS V12.07,2013-03-21 03:48:00,
2013-03-20 23:53:00,48.4,39.8,29.82,NNE,24,0.0,0.0,72,0.00, ,,-99.99,VWS V12.07,2013-03-21 03:53:00,
2013-03-20 23:59:00,48.4,39.5,29.82,NNE,24,0.0,0.0,71,0.00, ,,-99.99,VWS V12.07,2013-03-21 03:59:00,